Terug naar catalogus

STARLINK-32554

ActiefCommunicatieVLEO
NORAD 62136·PAYLOAD·🇺🇸 United States

Gelanceerd Nov 27, 2024 vanaf Cape Canaveral Space Force Station

Loading…

Volgende Passages (komende 24 uur)

TLE

VersSource: CelesTrak SupGP

Epoch: Sep 14, 2026, 22:58 UTC

1 62136C 24222Y   26257.95743056 -.00028348  00000+0 -10269-2 0  2574
2 62136  43.0016 147.2265 0001330 273.4971 167.2971 15.27587497    10

Volg STARLINK-32554 in realtime met AllMySat

Download on the App Store